EW8714 Weather Reports


Display with metric or nautical units.
time (UTC)temp
F
wind
direction
speed
MPH
gust
MPH
rain 1hr
in
rain 24hr
in
rain mn
in
humidity
%
barometer
mb
20260905093515 67 231 0.0 2.0 0.00 0.00 0.00 49 1017.5
20260905093017 67 231 0.0 2.0 0.00 0.00 0.00 49 1017.5
20260905092515 67 231 0.0 3.0 0.00 0.00 0.00 49 1017.5
20260905092018 67 231 1.0 3.0 0.00 0.00 0.00 48 1017.5
20260905091515 67 231 0.0 4.0 0.00 0.00 0.00 48 1017.5
20260905091014 68 231 1.0 4.0 0.00 0.00 0.00 47 1017.4
20260905090514 68 233 1.0 3.0 0.00 0.00 0.00 46 1017.3
20260905090024 68 235 0.0 0.0 0.00 0.00 0.00 46 1017.2
20260905085517 69 235 0.0 0.0 0.00 0.00 0.00 44 1017.1
20260905085017 69 235 0.0 2.0 0.00 0.00 0.00 43 1017.0
20260905084516 69 235 0.0 4.0 0.00 0.00 0.00 43 1017.0
20260905084016 70 235 2.0 7.0 0.00 0.00 0.00 42 1017.0
20260905083515 70 235 3.0 8.0 0.00 0.00 0.00 42 1016.9
20260905083014 69 240 4.0 8.0 0.00 0.00 0.00 43 1017.0
20260905082514 69 223 3.0 8.0 0.00 0.00 0.00 45 1016.9
20260905082016 69 221 5.0 8.0 0.00 0.00 0.00 46 1016.9
20260905081519 69 214 4.0 8.0 0.00 0.00 0.00 46 1017.0
20260905081018 69 210 5.0 8.0 0.00 0.00 0.00 46 1017.0
20260905080518 69 198 4.0 6.0 0.00 0.00 0.00 47 1016.9
20260905080019 68 197 4.0 6.0 0.00 0.00 0.00 47 1017.0
20260905075518 67 203 3.0 5.0 0.00 0.00 0.00 49 1017.0
20260905075017 68 203 2.0 4.0 0.00 0.00 0.00 49 1016.9
20260905074525 69 203 2.0 5.0 0.00 0.00 0.00 48 1017.0
20260905074022 68 203 3.0 6.0 0.00 0.00 0.00 49 1017.1
20260905073528 68 201 4.0 6.0 0.00 0.00 0.00 50 1017.1
20260905073023 68 179 3.0 5.0 0.00 0.00 0.00 50 1017.0
20260905072522 69 161 2.0 4.0 0.00 0.00 0.00 49 1017.0
20260905072025 69 160 1.0 3.0 0.00 0.00 0.00 48 1017.0
20260905071519 70 160 1.0 3.0 0.00 0.00 0.00 48 1017.2
20260905071018 70 160 2.0 3.0 0.00 0.00 0.00 48 1017.1
20260905070517 70 160 1.0 2.0 0.00 0.00 0.00 48 1017.1
20260905070024 69 160 0.0 2.0 0.00 0.00 0.00 49 1017.1
20260905065523 70 160 0.0 2.0 0.00 0.00 0.00 49 1017.0
20260905065020 71 160 0.0 0.0 0.00 0.00 0.00 47 1017.0
20260905064523 71 160 0.0 2.0 0.00 0.00 0.00 47 1016.9
20260905064024 71 160 0.0 3.0 0.00 0.00 0.00 46 1016.8
20260905063522 71 160 1.0 5.0 0.00 0.00 0.00 46 1016.8
20260905063023 72 160 3.0 5.0 0.00 0.00 0.00 45 1016.8
20260905062521 74 156 0.0 2.0 0.00 0.00 0.00 45 1016.7
20260905062020 74 156 0.0 3.0 0.00 0.00 0.00 44 1016.8
20260905061534 74 156 0.0 4.0 0.00 0.00 0.00 43 1016.8
20260905061021 75 157 1.0 4.0 0.00 0.00 0.00 42 1016.8
20260905060521 75 157 0.0 5.0 0.00 0.00 0.00 42 1016.7
20260905060022 75 160 1.0 5.0 0.00 0.00 0.00 42 1016.6
20260905055526 75 136 2.0 5.0 0.00 0.00 0.00 42 1016.6
20260905055021 75 110 1.0 5.0 0.00 0.00 0.00 42 1016.7
20260905054531 74 108 1.0 5.0 0.00 0.00 0.00 43 1016.6
20260905054024 73 86 2.0 4.0 0.00 0.00 0.00 44 1016.6
20260905053524 73 70 1.0 4.0 0.00 0.00 0.00 44 1016.6
20260905053024 74 69 2.0 4.0 0.00 0.00 0.00 43 1016.6
20260905052523 73 66 0.0 3.0 0.00 0.00 0.00 42 1016.6
20260905052024 73 66 1.0 3.0 0.00 0.00 0.00 42 1016.6
20260905051507 73 66 0.0 2.0 0.00 0.00 0.00 42 1016.6
20260905051003 72 66 0.0 2.0 0.00 0.00 0.00 43 1016.7
20260905050503 72 66 0.0 0.0 0.00 0.00 0.00 42 1016.8
20260905050023 72 66 0.0 1.0 0.00 0.00 0.00 42 1016.7
20260905045527 72 66 0.0 1.0 0.00 0.00 0.00 42 1016.8
20260905045022 73 66 0.0 2.0 0.00 0.00 0.00 42 1016.7
20260905044528 72 66 0.0 2.0 0.00 0.00 0.00 41 1016.7
20260905044022 72 66 0.0 3.0 0.00 0.00 0.00 40 1016.8
20260905043522 71 66 0.0 3.0 0.00 0.00 0.00 41 1016.7
20260905043025 71 66 0.0 3.0 0.00 0.00 0.00 44 1016.8
20260905042529 71 66 0.0 2.0 0.00 0.00 0.00 45 1016.8
20260905042025 72 66 0.0 2.0 0.00 0.00 0.00 46 1016.6
20260905041536 74 66 0.0 2.0 0.00 0.00 0.00 41 1016.6
20260905041023 75 66 0.0 1.0 0.00 0.00 0.00 38 1016.6
20260905040524 76 66 0.0 1.0 0.00 0.00 0.00 37 1016.5
20260905040021 76 66 0.0 1.0 0.00 0.00 0.00 36 1016.5
20260905035520 76 66 0.0 0.0 0.00 0.00 0.00 35 1016.6
20260905035021 77 66 0.0 3.0 0.00 0.00 0.00 35 1016.7
20260905034524 78 66 0.0 4.0 0.00 0.00 0.00 34 1016.6
20260905034024 78 66 0.0 4.0 0.00 0.00 0.00 35 1016.7
20260905033522 79 66 0.0 5.0 0.00 0.00 0.00 36 1016.7
20260905033021 79 66 2.0 5.0 0.00 0.00 0.00 30 1016.6
20260905032520 80 66 2.0 5.0 0.00 0.00 0.00 30 1016.6
20260905032021 80 66 1.0 4.0 0.00 0.00 0.00 30 1016.6
20260905031519 80 67 1.0 5.0 0.00 0.00 0.00 29 1016.6
20260905031019 80 67 1.0 5.0 0.00 0.00 0.00 29 1016.6
20260905030519 80 68 2.0 5.0 0.00 0.00 0.00 29 1016.5
20260905030022 80 68 2.0 6.0 0.00 0.00 0.00 28 1016.6
20260905025621 80 70 3.0 6.0 0.00 0.00 0.00 28 1016.5
20260905025021 80 95 0.0 4.0 0.00 0.00 0.00 29 1016.5
20260905024527 80 95 1.0 4.0 0.00 0.00 0.00 31 1016.4
20260905024019 80 95 3.0 4.0 0.00 0.00 0.00 29 1016.3
20260905023518 81 96 2.0 4.0 0.00 0.00 0.00 29 1016.3
20260905023021 81 96 1.0 3.0 0.00 0.00 0.00 29 1016.1
20260905022521 81 95 0.0 3.0 0.00 0.00 0.00 29 1016.0
20260905022023 82 95 1.0 3.0 0.00 0.00 0.00 29 1016.0
20260905021530 82 95 0.0 2.0 0.00 0.00 0.00 28 1016.0
20260905021021 82 95 0.0 2.0 0.00 0.00 0.00 28 1015.8
20260905020521 82 95 1.0 2.0 0.00 0.00 0.00 28 1015.8
20260905020021 81 96 0.0 1.0 0.00 0.00 0.00 29 1015.8
20260905015523 81 96 0.0 2.0 0.00 0.00 0.00 29 1015.8
20260905015020 81 96 0.0 2.0 0.00 0.00 0.00 30 1015.7
20260905014524 81 95 0.0 3.0 0.00 0.00 0.00 31 1015.7
20260905014025 82 95 1.0 4.0 0.00 0.00 0.00 32 1015.7
20260905013525 83 95 2.0 4.0 0.00 0.00 0.00 31 1015.6
20260905013021 84 94 2.0 6.0 0.00 0.00 0.00 27 1015.6
20260905012520 84 95 2.0 6.0 0.00 0.00 0.00 27 1015.6
20260905012021 84 94 3.0 6.0 0.00 0.00 0.00 26 1015.5
20260905011523 85 94 2.0 8.0 0.00 0.00 0.00 26 1015.5
20260905011024 85 90 3.0 8.0 0.00 0.00 0.00 26 1015.4
20260905010523 86 98 4.0 9.0 0.00 0.00 0.00 26 1015.5
20260905010023 86 98 5.0 9.0 0.00 0.00 0.00 25 1015.4
20260905005525 86 96 5.0 8.0 0.00 0.00 0.00 25 1015.4
20260905005024 87 87 4.0 9.0 0.00 0.00 0.00 25 1015.4
20260905004523 88 99 4.0 9.0 0.00 0.00 0.00 24 1015.4
20260905004023 88 96 4.0 9.0 0.00 0.00 0.00 23 1015.4
20260905003526 88 104 5.0 11.0 0.00 0.00 0.00 22 1015.5
20260905003006 89 110 6.0 11.0 0.00 0.00 0.00 22 1015.4
20260905002506 89 108 6.0 9.0 0.00 0.00 0.00 22 1015.4
20260905002006 89 92 5.0 9.0 0.00 0.00 0.00 23 1015.3
20260905001506 89 90 5.0 11.0 0.00 0.00 0.00 22 1015.3
20260905001005 89 94 6.0 11.0 0.00 0.00 0.00 22 1015.2
20260905000506 90 93 5.0 11.0 0.00 0.00 0.00 23 1015.2
20260905000008 90 104 5.0 11.0 0.00 0.00 0.00 22 1015.3
20260904235509 90 94 3.0 13.0 0.00 0.00 0.00 21 1015.2
20260904235011 90 98 4.0 13.0 0.00 0.00 0.00 22 1015.2
20260904234507 90 86 6.0 11.0 0.00 0.00 0.00 21 1015.1
20260904234011 90 105 5.0 11.0 0.00 0.00 0.00 20 1015.0
20260904233507 90 91 5.0 11.0 0.00 0.00 0.00 20 1015.1
20260904233006 90 103 5.0 10.0 0.00 0.00 0.00 21 1015.1
20260904232507 91 94 6.0 10.0 0.00 0.00 0.00 20 1015.0
20260904232005 91 98 4.0 11.0 0.00 0.00 0.00 21 1015.1
20260904231513 91 101 7.0 11.0 0.00 0.00 0.00 20 1014.9
20260904231015 91 92 7.0 10.0 0.00 0.00 0.00 21 1015.0
20260904230508 91 110 6.0 10.0 0.00 0.00 0.00 20 1015.1
20260904230027 91 89 4.0 11.0 0.00 0.00 0.00 21 1015.1
20260904225528 91 102 5.0 14.0 0.00 0.00 0.00 19 1015.1
20260904225026 91 102 8.0 14.0 0.00 0.00 0.00 19 1015.0
20260904224505 91 92 6.0 10.0 0.00 0.00 0.00 19 1015.0
20260904224004 92 96 4.0 14.0 0.00 0.00 0.00 19 1014.9
20260904223503 92 103 8.0 14.0 0.00 0.00 0.00 17 1015.0
20260904223006 93 131 5.0 10.0 0.00 0.00 0.00 17 1014.9
20260904222504 93 89 1.0 9.0 0.00 0.00 0.00 18 1014.9
20260904222006 92 78 4.0 9.0 0.00 0.00 0.00 17 1015.0
20260904221505 92 94 5.0 13.0 0.00 0.00 0.00 17 1015.0
20260904221005 92 118 8.0 13.0 0.00 0.00 0.00 17 1015.0
20260904220508 93 108 7.0 11.0 0.00 0.00 0.00 16 1015.0
20260904220009 94 107 2.0 11.0 0.00 0.00 0.00 16 1015.1
20260904215508 93 103 4.0 11.0 0.00 0.00 0.00 14 1015.0
20260904215007 93 136 3.0 8.0 0.00 0.00 0.00 15 1015.1
20260904214507 93 111 3.0 8.0 0.00 0.00 0.00 18 1015.1
20260904214011 92 98 4.0 8.0 0.00 0.00 0.00 17 1015.1
20260904213506 92 96 4.0 8.0 0.00 0.00 0.00 15 1015.2
20260904213034 92 89 5.0 8.0 0.00 0.00 0.00 16 1015.2
20260904212527 93 117 2.0 12.0 0.00 0.00 0.00 15 1015.3
20260904212027 92 108 3.0 12.0 0.00 0.00 0.00 16 1015.3
20260904211507 92 103 4.0 8.0 0.00 0.00 0.00 16 1015.4
20260904211007 91 107 5.0 13.0 0.00 0.00 0.00 16 1015.5
20260904210507 90 102 6.0 13.0 0.00 0.00 0.00 18 1015.5
20260904210013 92 99 6.0 10.0 0.00 0.00 0.00 16 1015.7
20260904205507 91 92 5.0 12.0 0.00 0.00 0.00 20 1015.7
20260904205005 91 110 6.0 14.0 0.00 0.00 0.00 18 1015.8
20260904204516 92 96 5.0 14.0 0.00 0.00 0.00 18 1016.0
20260904204010 92 110 4.0 9.0 0.00 0.00 0.00 19 1015.9
20260904203509 92 77 3.0 10.0 0.00 0.00 0.00 20 1016.1
20260904203013 91 55 6.0 14.0 0.00 0.00 0.00 20 1016.2
20260904202512 91 113 6.0 14.0 0.00 0.00 0.00 20 1016.2
20260904202008 92 88 8.0 14.0 0.00 0.00 0.00 18 1016.3
20260904201505 92 131 2.0 11.0 0.00 0.00 0.00 18 1016.4
20260904201004 91 160 5.0 11.0 0.00 0.00 0.00 18 1016.4
20260904200504 90 91 5.0 12.0 0.00 0.00 0.00 20 1016.5
20260904200009 90 96 5.0 13.0 0.00 0.00 0.00 19 1016.6
20260904195510 90 88 5.0 15.0 0.00 0.00 0.00 19 1016.6
20260904195008 90 110 8.0 15.0 0.00 0.00 0.00 20 1016.6
20260904194509 90 117 6.0 11.0 0.00 0.00 0.00 19 1016.6
20260904194008 91 116 3.0 10.0 0.00 0.00 0.00 18 1016.7
20260904193509 90 95 4.0 11.0 0.00 0.00 0.00 18 1016.6
20260904193010 90 90 4.0 13.0 0.00 0.00 0.00 17 1016.8
20260904192506 89 88 5.0 13.0 0.00 0.00 0.00 18 1016.8
20260904192009 90 105 6.0 11.0 0.00 0.00 0.00 15 1016.8
20260904191507 90 100 4.0 11.0 0.00 0.00 0.00 16 1016.8
20260904191007 89 101 2.0 11.0 0.00 0.00 0.00 17 1016.9
20260904190507 90 97 7.0 11.0 0.00 0.00 0.00 17 1016.8
20260904190007 89 111 4.0 10.0 0.00 0.00 0.00 17 1017.0
20260904185507 89 89 6.0 10.0 0.00 0.00 0.00 20 1017.1
20260904185009 90 86 5.0 10.0 0.00 0.00 0.00 20 1017.2
20260904184520 90 154 2.0 9.0 0.00 0.00 0.00 18 1017.3
20260904184010 90 174 4.0 9.0 0.00 0.00 0.00 20 1017.3
20260904183512 89 129 2.0 9.0 0.00 0.00 0.00 19 1017.3
20260904183010 89 130 4.0 9.0 0.00 0.00 0.00 19 1017.3
20260904182511 89 200 4.0 8.0 0.00 0.00 0.00 18 1017.4
20260904182010 88 101 5.0 10.0 0.00 0.00 0.00 21 1017.4
20260904181518 88 91 5.0 10.0 0.00 0.00 0.00 20 1017.5
20260904181010 88 101 3.0 9.0 0.00 0.00 0.00 20 1017.6
20260904180509 88 176 2.0 9.0 0.00 0.00 0.00 22 1017.6
20260904180030 88 176 3.0 9.0 0.00 0.00 0.00 21 1017.6
20260904175510 87 105 3.0 8.0 0.00 0.00 0.00 22 1017.7
20260904175012 88 141 3.0 8.0 0.00 0.00 0.00 22 1017.7
20260904174510 87 96 3.0 9.0 0.00 0.00 0.00 22 1017.7
20260904174010 87 108 4.0 9.0 0.00 0.00 0.00 21 1017.8
20260904173509 86 109 3.0 9.0 0.00 0.00 0.00 23 1017.8
20260904173022 87 105 4.0 9.0 0.00 0.00 0.00 21 1017.9
20260904172513 87 183 2.0 7.0 0.00 0.00 0.00 24 1017.9
20260904172015 86 172 3.0 7.0 0.00 0.00 0.00 21 1017.9
20260904171529 86 122 2.0 7.0 0.00 0.00 0.00 25 1017.9
20260904171014 85 162 2.0 7.0 0.00 0.00 0.00 23 1017.9
20260904170516 85 108 2.0 7.0 0.00 0.00 0.00 25 1017.9
20260904170012 84 167 3.0 7.0 0.00 0.00 0.00 26 1017.9
20260904165512 84 129 3.0 9.0 0.00 0.00 0.00 26 1017.9
20260904165010 84 119 3.0 9.0 0.00 0.00 0.00 28 1018.1
20260904164513 83 105 4.0 8.0 0.00 0.00 0.00 27 1018.1
20260904164014 83 114 2.0 6.0 0.00 0.00 0.00 27 1018.0
20260904163512 83 157 2.0 7.0 0.00 0.00 0.00 27 1018.0
20260904163016 83 113 3.0 7.0 0.00 0.00 0.00 26 1018.0
20260904162514 83 143 2.0 6.0 0.00 0.00 0.00 27 1018.1
20260904162012 81 167 2.0 9.0 0.00 0.00 0.00 27 1018.0
20260904161514 80 200 2.0 9.0 0.00 0.00 0.00 28 1018.2
20260904161012 80 195 4.0 8.0 0.00 0.00 0.00 29 1018.2
20260904160511 79 156 3.0 7.0 0.00 0.00 0.00 29 1018.1
20260904160017 79 209 3.0 6.0 0.00 0.00 0.00 29 1018.1
20260904155517 79 132 1.0 6.0 0.00 0.00 0.00 29 1018.2
20260904155017 79 116 2.0 6.0 0.00 0.00 0.00 29 1018.2
20260904154532 78 117 2.0 6.0 0.00 0.00 0.00 30 1018.1
20260904154017 78 165 2.0 7.0 0.00 0.00 0.00 31 1018.0
20260904153513 77 110 4.0 7.0 0.00 0.00 0.00 30 1018.0
20260904153018 77 136 3.0 7.0 0.00 0.00 0.00 30 1018.0
20260904152515 77 141 2.0 6.0 0.00 0.00 0.00 32 1018.0
20260904152013 76 130 2.0 7.0 0.00 0.00 0.00 32 1018.0
20260904151517 76 115 4.0 7.0 0.00 0.00 0.00 32 1017.9
20260904151016 75 184 4.0 7.0 0.00 0.00 0.00 33 1017.9
20260904150515 74 148 3.0 7.0 0.00 0.00 0.00 33 1018.0
20260904150015 74 170 2.0 8.0 0.00 0.00 0.00 35 1018.0
20260904145514 73 179 3.0 8.0 0.00 0.00 0.00 37 1017.9
20260904145015 73 172 4.0 7.0 0.00 0.00 0.00 38 1018.0
20260904144516 73 209 2.0 8.0 0.00 0.00 0.00 39 1017.9
20260904144019 72 191 2.0 8.0 0.00 0.00 0.00 40 1017.9
20260904143514 72 200 2.0 8.0 0.00 0.00 0.00 42 1017.9
20260904143018 71 196 4.0 8.0 0.00 0.00 0.00 42 1017.9
20260904142514 71 191 4.0 7.0 0.00 0.00 0.00 42 1017.8
20260904142014 70 211 4.0 7.0 0.00 0.00 0.00 43 1017.9
20260904141518 70 197 4.0 6.0 0.00 0.00 0.00 43 1017.8
20260904141017 69 199 3.0 6.0 0.00 0.00 0.00 44 1017.8
20260904140517 69 198 3.0 6.0 0.00 0.00 0.00 44 1017.7
20260904140018 68 198 3.0 6.0 0.00 0.00 0.00 45 1017.6
20260904135522 68 199 4.0 7.0 0.00 0.00 0.00 46 1017.5
20260904135018 67 198 4.0 7.0 0.00 0.00 0.00 47 1017.4
20260904134518 67 207 4.0 6.0 0.00 0.00 0.00 48 1017.4
20260904134019 66 193 4.0 8.0 0.00 0.00 0.00 48 1017.3
20260904133515 66 201 5.0 8.0 0.00 0.00 0.00 48 1017.2
20260904133020 66 205 4.0 6.0 0.00 0.00 0.00 49 1017.2
20260904132517 65 203 2.0 6.0 0.00 0.00 0.00 50 1017.2
20260904132016 65 207 3.0 6.0 0.00 0.00 0.00 51 1017.1
20260904131514 64 207 4.0 6.0 0.00 0.00 0.00 53 1017.1
20260904131014 64 210 3.0 4.0 0.00 0.00 0.00 53 1017.0
20260904130513 63 210 2.0 4.0 0.00 0.00 0.00 54 1017.0
20260904130014 62 210 2.0 3.0 0.00 0.00 0.00 56 1016.9
20260904125514 61 210 0.0 3.0 0.00 0.00 0.00 58 1016.8
20260904125013 61 210 1.0 3.0 0.00 0.00 0.00 60 1016.8
20260904124516 60 210 1.0 3.0 0.00 0.00 0.00 59 1016.8
20260904124015 61 210 1.0 3.0 0.00 0.00 0.00 58 1016.7
20260904123515 61 210 1.0 3.0 0.00 0.00 0.00 57 1016.7
20260904123017 61 210 2.0 3.0 0.00 0.00 0.00 58 1016.6
20260904122515 61 210 1.0 4.0 0.00 0.00 0.00 58 1016.6
20260904122015 61 210 2.0 4.0 0.00 0.00 0.00 58 1016.6
20260904121521 61 210 3.0 4.0 0.00 0.00 0.00 59 1016.5
20260904121018 61 210 0.0 6.0 0.00 0.00 0.00 59 1016.5
20260904120518 61 210 1.0 6.0 0.00 0.00 0.00 59 1016.5
20260904120024 61 210 4.0 6.0 0.00 0.00 0.00 60 1016.5
20260904115518 60 217 3.0 6.0 0.00 0.00 0.00 62 1016.5
20260904115017 59 219 4.0 6.0 0.00 0.00 0.00 63 1016.4
20260904114522 59 220 3.0 5.0 0.00 0.00 0.00 64 1016.4
20260904114017 58 293 2.0 4.0 0.00 0.00 0.00 64 1016.3
20260904113521 58 293 1.0 3.0 0.00 0.00 0.00 63 1016.2
20260904113022 59 293 2.0 3.0 0.00 0.00 0.00 63 1016.1
20260904112520 59 293 0.0 3.0 0.00 0.00 0.00 62 1016.0
20260904112019 60 293 1.0 3.0 0.00 0.00 0.00 61 1016.0
20260904111520 60 293 1.0 2.0 0.00 0.00 0.00 60 1015.9
20260904111019 61 293 0.0 0.0 0.00 0.00 0.00 60 1015.9
20260904110518 61 293 0.0 0.0 0.00 0.00 0.00 58 1016.0
20260904110022 61 293 0.0 2.0 0.00 0.00 0.00 58 1015.9
20260904105523 61 293 0.0 2.0 0.00 0.00 0.00 58 1015.9
20260904105024 62 293 1.0 3.0 0.00 0.00 0.00 57 1015.9
20260904104529 62 293 1.0 3.0 0.00 0.00 0.00 56 1015.8
20260904104025 62 293 1.0 3.0 0.00 0.00 0.00 56 1015.8
20260904103520 62 293 1.0 3.0 0.00 0.00 0.00 55 1015.6
20260904103022 62 293 0.0 2.0 0.00 0.00 0.00 54 1015.6
20260904102524 62 293 0.0 2.0 0.00 0.00 0.00 54 1015.6
20260904102025 62 293 0.0 2.0 0.00 0.00 0.00 53 1015.5
20260904101534 63 293 1.0 2.0 0.00 0.00 0.00 52 1015.5
20260904101023 64 293 0.0 3.0 0.00 0.00 0.00 51 1015.5
20260904100523 64 293 1.0 3.0 0.00 0.00 0.00 50 1015.4
20260904100021 64 293 1.0 3.0 0.00 0.00 0.00 50 1015.3
20260904095521 64 293 0.0 2.0 0.00 0.00 0.00 50 1015.3
20260904095022 64 293 0.0 1.0 0.00 0.00 0.00 50 1015.4
20260904094518 64 293 0.0 2.0 0.00 0.00 0.00 49 1015.4
20260904094018 65 293 0.0 2.0 0.00 0.00 0.00 49 1015.4